Flag for Kazakhstan Weather past 2 weeks in Almaty, Kazakhstan

Now
50 °F

Mostly cloudy.


Feels Like: 45 °F
Forecast: 49 / 61 °F
Wind: 13 mph from South

Location: Almaty Airport

Current Time: Apr 27, 2015 at 2:11:39 AM

Latest Report: Apr 27, 2015 at 1:30 AM


Visibility: N/A

Pressure: 30.24 "Hg

Humidity: 67%

Dew point: 39 °F

Location of AlmatyLocation

Historic Weather in Almaty — Graph

°F

Almaty temperature yesterday

Maximum temperature yesterday: 79 °F (at 10:00 AM)
Minimum temperature yesterday: 46 °F (at 11:30 PM)
Average temperature yesterday: 62 °F

Past Weeks' High & Low Weather Summary

 TemperatureHumidityPressure
High90 °F (Apr 24, 1:30 PM)94% (Apr 16, 4:00 AM)30.33 "Hg (Apr 16, 4:00 AM)
Low43 °F (Apr 16, 11:30 PM)9% (Apr 24, 1:30 PM)29.65 "Hg (Apr 26, 6:00 AM)
Average61 °F52%30.00 "Hg
* Reported Apr 12 1:00 AM — Apr 27 1:00 AM, Almaty, Weather by CustomWeather, © 2015

Note: Actual official high and low records may vary slightly from our data, if they occured in-between our weather recording intervals... More about our weather records

Advertising

Almaty weather history for previous 24 hours

 ConditionsComfort  
Time TempWeatherWind HumidityBarometerVisibility
1:00 AM
Mon, Apr 27
48 °FSprinkles. Mostly cloudy.13 mph76%30.24 "HgN/A
12:30 AM46 °FSprinkles. Fog.15 mph82%30.24 "Hg3 mi
12:00 AM46 °FRain showers. Fog.15 mph87%30.27 "Hg2 mi
11:30 PM
Sun, Apr 26
46 °FRain showers. Fog.8 mph87%30.27 "Hg2 mi
11:00 PM48 °FRain showers. Fog.10 mph82%30.24 "Hg2 mi
10:30 PM48 °FSprinkles. Overcast.10 mph87%30.21 "HgN/A
10:00 PM48 °FSprinkles. Overcast.8 mph87%30.18 "HgN/A
9:30 PM50 °FSprinkles. Overcast.10 mph76%30.15 "HgN/A
9:00 PM50 °FSprinkles. Overcast.13 mph82%30.15 "HgN/A
8:30 PM50 °FSprinkles. Fog.13 mph82%30.12 "Hg3 mi
8:00 PM50 °FRain showers. Fog.20 mph82%30.12 "Hg2 mi
7:30 PM52 °FRain showers. Fog.20 mph88%30.07 "Hg1 mi
7:00 PM54 °FRain showers. Fog.26 mph88%29.98 "Hg2 mi
6:30 PM59 °FRain showers. Fog.6 mph82%29.92 "Hg2 mi
6:00 PM61 °FSprinkles. Fog.3 mph77%29.86 "Hg3 mi
5:30 PM64 °FSprinkles. Mostly cloudy.10 mph64%29.83 "HgN/A
5:00 PM66 °FSprinkles. Mostly cloudy.10 mph60%29.80 "HgN/A
4:30 PM66 °FSprinkles. Mostly cloudy.13 mph56%29.80 "HgN/A
4:00 PM68 °FMostly cloudy.15 mph56%29.77 "HgN/A
3:30 PM70 °FMostly cloudy.24 mph46%29.74 "HgN/A
3:00 PM75 °FMore clouds than sun.13 mph39%29.71 "HgN/A
2:30 PM75 °FOvercast.13 mph39%29.71 "HgN/A
2:00 PM75 °FOvercast.13 mph36%29.71 "HgN/A
1:30 PM75 °FPartly sunny.15 mph39%29.71 "HgN/A
1:00 PM77 °FBroken clouds.15 mph39%29.71 "HgN/A
12:30 PM75 °FBroken clouds.15 mph39%29.68 "HgN/A
12:00 PM75 °FBroken clouds.17 mph39%29.71 "HgN/A
11:30 AM73 °FBroken clouds.20 mph41%29.74 "HgN/A
11:00 AM73 °FBroken clouds.17 mph47%29.74 "HgN/A
10:30 AM73 °FPartly sunny.17 mph47%29.71 "HgN/A
10:00 AM79 °FBroken clouds.6 mph30%29.68 "HgN/A
9:30 AM77 °FBroken clouds.3 mph34%29.68 "HgN/A
9:00 AM73 °FPartly sunny.1 mph44%29.68 "HgN/A
8:30 AM68 °FBroken clouds.8 mph53%29.71 "HgN/A
8:00 AM66 °FBroken clouds.13 mph49%29.74 "HgN/A
7:30 AM64 °FBroken clouds.10 mph46%29.71 "HgN/A
7:00 AM59 °FBroken clouds.10 mph63%29.71 "HgN/A
6:30 AM52 °FBroken clouds.10 mph72%29.68 "HgN/A
6:00 AM52 °FBroken clouds.3 mph67%29.65 "HgN/A
5:30 AM52 °FPartly cloudy.3 mph67%29.68 "HgN/A
5:00 AM54 °FPartly cloudy.3 mph63%29.68 "HgN/A
4:30 AM52 °FPartly cloudy.3 mph67%29.68 "HgN/A
4:00 AM55 °FPartly cloudy.3 mph59%29.68 "HgN/A
3:00 AM55 °FPartly cloudy.3 mph63%29.68 "HgN/A
2:30 AM55 °FPartly cloudy.6 mph63%29.68 "HgN/A
2:00 AM55 °FPartly cloudy.3 mph67%29.71 "HgN/A
Weather by CustomWeather, © 2015

See weather overviewHow to use our weather pages